ECMWFFLT2_925_spd_021.txt.gz
Wind_Speed
21 22 22 22 21 20 19 18 18 17 16 16 15 15 14 13 12 11 10 10 9 9 9 8 8 8 8 8 8 8 7 7 7 7 7 6 6 6 6 6 5 5 5 4 4 4 6 8 8 7 6 5 4 6 12 14 14 12 10 9 7 6
20 21 22 22 21 20 18 18 18 17 17 16 15 14 14 13 12 11 11 10 9 9 9 8 8 7 7 7 7 7 6 7 6 6 6 6 5 5 6 6 5 4 4 3 3 3 4 7 7 6 6 5 5 6 12 14 13 12 10 8 6 5
21 21 22 22 21 21 20 19 19 18 17 16 15 14 13 13 12 12 11 10 10 9 9 9 7 7 6 6 6 6 6 6 6 5 5 5 4 4 5 6 5 4 3 3 2 2 3 6 7 6 6 6 6 7 12 14 13 12 10 8 5 5
23 23 23 22 22 22 20 20 19 18 17 16 15 14 13 12 12 11 11 10 9 9 9 9 7 6 6 6 6 6 6 6 5 5 4 4 3 4 5 6 6 5 4 3 3 2 3 6 7 6 6 6 6 6 10 12 11 11 10 7 5 4
24 24 24 23 23 21 20 19 18 17 16 15 14 13 13 11 11 11 10 10 9 9 9 9 8 7 7 7 7 7 6 6 6 5 4 3 3 4 5 6 6 5 4 3 3 2 3 6 7 6 6 6 6 5 7 10 10 9 8 6 5 4
25 24 23 22 21 20 19 19 17 16 15 14 13 12 12 11 10 11 10 10 10 10 9 9 9 8 7 7 6 7 6 6 5 4 3 3 3 3 4 5 5 4 4 3 3 3 3 5 6 6 6 5 5 5 6 8 9 9 8 6 5 4
25 24 22 20 19 19 18 18 16 15 15 14 13 12 12 11 11 11 10 10 10 10 10 10 9 8 8 7 6 6 6 5 5 4 4 3 4 3 4 4 4 4 4 5 4 3 2 3 5 6 4 3 4 3 5 8 9 9 9 7 5 4
24 23 21 19 18 18 17 16 15 15 14 14 13 13 12 12 11 12 11 11 11 11 11 10 9 9 7 7 7 7 6 6 6 6 5 5 5 5 4 4 4 5 5 7 6 4 2 3 4 4 3 2 2 3 4 7 8 9 9 7 5 5
23 22 20 19 18 17 16 16 15 15 14 14 14 13 13 13 12 12 12 12 12 12 11 10 9 9 8 8 8 8 7 6 7 7 7 6 7 6 5 4 4 4 6 8 8 5 3 4 4 3 3 2 0 3 5 7 9 10 10 7 5 5
22 21 20 19 18 17 16 16 16 15 15 14 14 14 14 14 13 13 13 13 13 13 12 11 10 10 10 9 9 9 8 7 7 8 8 7 7 6 5 4 4 4 5 8 9 6 4 4 4 2 2 0 1 2 4 6 9 11 10 8 6 5
22 20 19 18 17 16 15 16 16 16 15 15 14 14 14 14 14 14 14 14 14 14 14 12 11 10 10 10 10 9 9 9 9 9 9 8 8 7 7 6 6 5 5 6 8 6 5 4 3 2 3 3 3 2 4 6 9 11 11 8 6 5
21 19 19 18 16 15 14 15 16 16 16 15 15 14 15 15 15 15 15 15 14 14 15 14 12 11 10 10 10 10 10 11 12 11 11 11 10 10 9 8 8 8 7 7 7 6 5 5 4 5 5 4 4 3 5 7 9 11 11 8 7 6
20 18 17 16 15 14 14 15 15 15 15 15 15 14 14 15 15 15 16 16 15 16 16 14 12 11 10 10 10 10 11 12 12 12 12 12 11 11 11 11 10 8 8 8 8 7 6 6 5 5 3 2 3 3 5 7 9 11 11 9 8 8
19 17 16 14 13 14 14 15 15 15 15 15 15 14 14 14 14 15 16 16 16 16 15 14 12 10 10 10 9 11 12 12 11 11 11 11 10 9 10 11 10 8 7 7 8 8 7 6 4 3 3 3 3 3 5 7 9 11 11 10 9 8
17 15 14 13 13 13 14 15 15 15 15 15 14 14 14 14 14 14 15 15 15 15 15 13 11 10 10 10 10 12 12 11 10 10 9 10 9 8 8 10 10 8 7 7 8 8 8 6 6 6 6 6 5 6 6 6 7 10 12 11 11 10
16 14 13 13 12 13 14 14 14 14 13 13 13 14 14 13 14 14 14 14 13 13 11 10 10 9 9 11 12 13 12 11 10 9 8 9 9 8 7 8 9 9 8 8 8 8 7 7 9 8 7 7 7 7 7 7 5 6 9 12 13 12
15 15 14 13 12 11 12 13 13 12 12 12 13 13 13 13 13 13 13 12 12 11 9 8 9 8 9 10 12 13 11 10 10 8 8 9 9 9 8 7 8 7 7 8 8 8 9 10 10 10 8 7 7 7 7 7 6 3 3 7 11 13
14 15 15 14 12 12 12 12 12 12 12 12 13 13 13 13 13 12 11 10 10 11 10 8 8 8 9 10 11 12 11 10 10 9 9 10 9 9 10 8 7 7 8 9 11 11 12 12 10 9 8 7 7 6 6 6 6 5 2 1 4 9
15 17 17 15 14 14 13 12 13 12 11 11 11 11 11 11 11 11 9 9 10 11 10 9 7 7 7 10 11 10 9 8 9 9 10 10 10 10 12 11 8 9 12 12 12 12 12 11 9 8 7 6 6 5 5 4 4 5 4 3 2 4
17 18 17 16 16 16 15 13 12 11 9 9 9 8 7 7 7 8 7 7 9 9 9 8 7 6 7 9 10 9 8 8 8 9 10 10 10 11 14 14 10 10 13 13 11 11 10 9 8 7 6 5 5 5 4 3 3 3 3 3 2 3
19 19 18 18 17 17 16 14 12 10 9 8 7 6 5 4 4 5 6 6 7 6 6 6 6 7 8 7 6 6 6 7 9 10 9 10 11 11 13 14 12 10 12 13 12 10 9 9 7 6 5 4 4 5 5 3 2 2 3 3 3 3
22 21 20 19 18 18 17 15 13 12 11 10 9 8 7 7 6 6 6 6 6 6 7 7 8 8 7 5 4 3 2 4 7 9 9 10 10 11 12 14 13 11 11 12 11 10 10 8 5 4 4 2 3 5 6 6 4 1 1 2 3 3
25 23 21 19 18 18 17 15 14 13 13 12 11 9 8 9 9 8 8 7 7 7 7 7 7 7 6 6 6 5 4 3 5 7 9 10 10 11 12 13 13 12 11 11 10 9 9 6 5 6 4 2 1 2 3 5 6 4 2 2 2 3
26 24 21 19 18 18 17 16 14 15 14 13 11 10 9 10 9 9 8 7 6 5 6 6 5 6 7 7 7 6 5 4 4 5 6 7 9 11 13 14 13 12 11 11 9 7 7 5 6 6 3 2 1 2 1 2 4 5 4 4 4 4
25 23 21 20 19 19 19 18 17 16 15 14 14 12 11 11 9 9 8 6 5 4 5 6 5 5 6 8 7 5 5 5 4 4 4 5 7 10 12 12 11 11 10 10 9 7 7 5 6 5 3 3 2 1 1 1 2 3 4 5 5 5
25 23 21 19 19 19 19 19 19 19 18 18 18 15 13 11 10 8 8 7 5 5 6 6 6 5 5 5 5 4 5 6 6 6 5 5 7 8 8 9 8 8 7 7 7 7 7 7 6 5 3 4 2 1 3 2 1 1 2 3 4 5
26 24 22 20 18 18 18 19 20 20 19 18 17 15 13 11 10 8 8 8 7 7 6 6 6 6 6 5 4 4 6 7 7 8 7 7 8 7 7 7 6 5 5 5 5 6 8 8 7 6 3 4 4 5 5 3 3 1 1 1 2 3
28 25 23 20 18 18 19 20 21 19 17 16 14 13 12 11 11 10 10 9 9 8 7 6 6 6 7 7 5 5 6 8 9 9 8 8 8 7 6 5 5 5 4 3 2 3 6 8 8 7 6 4 4 4 3 3 3 2 2 1 2 2
27 24 22 20 18 19 20 21 21 20 17 15 12 11 11 11 10 10 10 10 9 8 8 7 6 6 7 7 6 6 6 9 10 8 7 6 7 7 7 6 6 5 4 4 3 2 4 7 7 7 8 6 3 4 4 4 4 3 3 2 1 2
20 18 17 17 18 20 22 23 23 22 19 16 14 12 12 10 9 9 9 9 9 8 8 8 7 8 9 8 7 7 7 8 7 5 4 3 4 5 6 7 8 7 7 7 6 6 6 5 5 5 7 7 5 6 5 3 4 4 4 4 3 0
14 15 17 18 20 23 25 26 25 23 21 19 18 16 15 12 11 10 9 8 8 8 8 9 10 11 11 10 9 9 8 7 6 4 3 2 1 3 4 6 7 8 8 8 8 8 8 8 7 7 6 5 6 6 4 4 4 3 2 3 3 1
19 22 24 24 25 27 28 27 25 24 22 21 20 19 17 16 15 13 12 10 9 8 9 10 12 12 12 11 9 8 7 6 6 6 4 3 2 2 4 5 6 7 8 9 9 9 10 10 9 10 9 8 8 7 6 6 5 4 4 4 4 3
28 29 28 27 29 30 29 27 24 23 23 21 21 20 18 17 17 16 14 13 11 9 10 11 12 12 11 10 7 6 6 7 8 7 6 5 5 5 5 7 8 9 9 9 8 9 10 11 10 10 11 10 9 7 7 7 5 5 6 6 7 6
32 31 31 31 31 29 25 24 22 21 21 20 19 20 18 19 19 18 16 14 12 11 11 12 12 12 11 9 7 7 9 10 10 9 9 8 8 8 8 8 8 8 8 7 7 8 9 10 10 10 9 9 8 7 7 6 4 5 5 6 8 8
31 33 33 28 25 24 22 22 20 20 20 16 17 20 19 19 20 19 16 14 13 12 11 12 13 12 11 10 9 9 11 11 11 10 10 9 9 9 9 9 8 7 7 6 6 8 9 9 9 9 8 8 8 8 7 6 5 6 7 7 9 9
32 31 23 15 16 18 19 19 18 20 22 19 21 23 20 19 20 18 16 14 13 12 11 12 14 13 12 11 10 10 11 11 11 11 10 10 9 9 9 9 9 8 8 7 7 8 8 8 8 9 8 7 8 10 10 9 9 9 8 9 9 9
28 20 20 18 18 22 22 19 19 22 24 24 26 24 21 20 20 18 15 13 13 12 11 12 14 13 13 12 11 11 10 11 11 11 11 10 10 10 9 9 10 9 9 9 8 8 8 8 9 9 8 8 9 11 12 11 11 10 9 9 9 9

ECMWFFLT2_925_spd_024.txt.gz
Wind_Speed
18 18 19 19 20 20 19 18 18 17 15 15 14 14 14 14 13 12 11 11 11 11 10 10 9 9 9 9 8 9 9 8 8 8 7 7 7 6 7 7 7 6 5 6 7 7 7 8 8 7 6 6 7 10 13 12 10 8 7 6 5 5
19 19 19 19 20 21 19 19 18 16 16 15 14 13 13 13 12 11 11 10 10 10 10 9 9 8 8 8 8 8 8 8 7 7 6 6 6 6 6 6 6 6 5 5 6 6 6 7 7 7 6 6 8 11 12 12 10 8 6 5 4 4
20 20 20 19 20 20 19 19 18 17 16 16 14 13 14 13 12 11 11 9 9 8 8 8 8 7 7 8 7 7 7 6 6 6 5 4 4 5 5 6 6 5 5 5 4 5 6 6 6 7 6 7 9 11 12 12 10 8 5 4 3 3
20 20 20 19 19 19 19 19 18 18 17 16 15 14 14 12 11 10 9 8 7 7 7 7 7 7 6 7 7 6 5 5 5 5 4 3 3 3 5 6 5 5 4 4 4 4 5 6 6 7 6 7 8 11 12 11 9 7 5 3 2 2
20 20 19 18 19 19 19 18 18 17 16 16 15 14 14 12 11 10 8 8 7 7 8 7 6 6 6 5 6 5 4 4 4 3 2 2 2 2 3 5 5 4 3 3 3 3 5 6 6 7 6 7 8 10 11 10 9 7 5 3 2 2
18 18 19 19 19 19 18 19 18 17 17 16 15 14 14 12 11 10 9 8 7 8 8 8 6 6 6 5 5 5 4 3 3 2 1 1 1 1 1 2 3 2 1 2 4 4 5 5 6 7 7 7 8 8 9 9 8 7 6 4 3 2
17 18 19 19 20 19 18 19 19 18 17 16 15 15 14 13 11 10 9 8 8 8 8 8 7 5 5 4 4 4 3 2 2 1 1 1 1 2 2 2 2 2 1 1 4 4 5 5 5 6 6 6 6 6 7 8 7 7 6 5 4 2
17 19 19 19 19 19 18 19 18 18 18 17 16 15 13 12 10 10 9 9 9 8 8 7 7 5 4 3 3 3 3 3 2 2 2 2 2 2 3 3 4 3 2 1 2 3 4 4 4 5 6 5 4 5 5 6 7 7 6 5 4 3
17 19 19 18 19 19 19 19 19 19 18 17 16 14 13 12 11 10 9 9 9 9 8 7 7 5 4 3 3 4 3 3 2 3 3 3 3 2 3 4 5 4 3 1 1 1 2 3 4 4 5 5 3 4 4 5 6 7 7 6 4 3
17 18 19 19 19 19 18 19 19 18 17 16 15 14 13 12 11 10 10 10 10 9 9 9 7 6 4 4 4 4 4 3 3 3 4 3 3 2 3 4 4 5 4 1 1 1 1 2 3 3 4 4 4 4 4 4 5 6 7 6 4 3
18 19 19 19 19 18 17 18 18 16 16 15 14 14 13 12 11 11 11 12 11 10 10 10 8 6 5 4 5 5 5 4 4 4 4 3 3 3 3 3 4 4 4 2 1 1 2 2 2 3 2 2 3 4 3 3 4 6 6 5 5 4
19 20 20 19 18 18 17 17 17 16 15 14 13 13 13 13 12 12 12 12 11 10 10 10 9 7 5 5 5 6 6 5 5 5 5 5 4 4 3 3 3 4 4 2 2 2 2 3 2 2 2 1 1 2 3 3 4 6 6 5 5 4
20 20 19 18 18 17 16 16 16 15 14 14 13 12 13 13 12 11 12 12 10 10 11 10 9 9 9 8 6 6 7 6 6 7 7 6 5 5 4 3 3 3 3 2 2 2 2 3 3 2 2 1 0 1 4 5 5 6 6 5 5 4
19 19 18 17 17 16 15 15 15 14 14 13 13 13 12 11 11 11 12 12 11 11 12 11 10 11 12 11 8 5 6 6 7 7 6 6 5 5 5 4 3 3 2 1 3 3 3 3 3 2 1 1 0 2 5 6 5 5 6 6 5 4
18 17 16 17 17 16 15 14 14 13 13 11 12 12 11 10 10 9 10 10 9 9 10 10 10 10 10 10 8 5 7 7 7 7 6 5 5 5 5 5 5 4 2 2 3 5 4 4 3 3 3 2 3 4 6 6 6 6 7 7 7 7
18 17 16 16 16 15 14 13 12 11 10 9 10 11 9 8 8 7 7 7 7 7 7 7 9 9 9 8 7 6 8 7 7 6 5 5 5 6 6 6 6 5 4 3 4 6 6 6 6 7 6 6 6 6 7 7 6 6 7 9 9 10
18 17 16 17 16 14 12 10 10 9 8 8 8 9 8 7 6 6 6 5 5 5 5 5 7 8 8 8 8 8 9 8 7 6 5 5 5 7 7 7 7 5 5 5 5 7 8 9 10 9 9 9 8 8 8 8 7 6 6 7 9 11
18 16 16 16 15 12 10 9 8 8 8 7 8 8 8 7 6 6 6 5 4 5 5 5 5 7 8 8 8 9 9 8 7 6 5 5 5 7 7 7 7 5 5 5 6 9 11 12 12 12 11 10 9 8 7 7 6 5 4 5 6 9
17 16 15 15 14 12 10 9 8 8 8 8 7 6 6 5 4 4 5 5 5 4 5 5 4 5 6 7 8 9 9 8 7 7 6 6 6 7 7 7 6 4 5 6 7 10 13 14 13 12 11 10 9 8 7 6 5 4 3 3 3 5
17 16 16 16 14 12 10 9 9 9 8 8 6 4 3 2 1 1 2 3 3 3 4 4 3 3 4 5 6 8 9 9 8 7 7 7 7 7 7 7 7 5 6 8 9 12 14 15 14 11 10 9 8 7 7 6 5 4 3 2 2 2
18 17 18 17 14 12 11 10 9 9 9 7 5 4 4 4 4 4 2 1 0 1 1 2 2 2 3 4 5 6 7 8 8 8 7 7 6 7 7 7 8 7 9 10 11 12 14 15 13 10 9 8 7 6 6 5 4 4 4 3 2 2
19 19 18 17 15 12 11 11 10 9 9 7 7 7 7 8 8 7 6 4 3 2 2 2 2 3 3 4 4 5 7 8 8 8 7 7 7 7 7 8 9 10 11 12 10 10 13 11 8 8 9 6 5 5 6 5 3 3 3 3 3 3
20 19 18 16 14 12 11 11 9 9 9 9 9 9 9 10 10 10 9 8 6 5 4 4 4 5 5 5 4 4 5 5 6 6 6 7 8 8 8 9 11 11 12 11 8 8 9 7 6 9 10 4 1 2 3 4 5 5 3 3 3 3
21 20 18 16 14 13 13 12 10 10 10 9 10 9 9 10 9 9 9 8 7 6 5 4 3 4 5 5 5 4 3 3 4 5 5 6 8 9 10 11 11 11 10 9 8 6 5 6 8 9 6 3 2 2 1 1 3 5 5 4 4 3
22 20 18 16 15 15 14 13 12 11 10 9 9 9 9 9 8 7 7 5 4 3 4 4 2 3 5 5 4 3 1 2 3 4 5 5 6 8 10 11 12 11 9 9 9 7 5 5 9 10 7 4 2 2 1 2 2 4 4 5 4 4
22 21 19 17 16 16 15 14 12 12 11 10 10 8 8 8 7 5 4 3 2 2 3 4 3 3 4 4 2 1 1 2 3 4 5 5 5 7 8 8 9 9 8 9 10 9 6 6 8 8 7 5 3 3 4 4 2 2 3 4 5 5
22 21 19 18 18 17 16 14 12 11 10 10 10 9 8 7 6 5 4 3 2 3 3 4 3 3 3 2 1 2 2 3 3 3 3 3 3 4 5 6 7 7 7 7 8 7 6 6 7 7 7 7 6 7 6 5 3 1 2 4 7 9
22 21 21 20 19 17 16 14 12 11 10 9 9 9 9 8 7 6 5 5 4 4 4 3 3 3 3 2 1 2 3 3 3 4 4 4 4 3 3 4 5 6 5 4 4 4 5 7 6 5 6 7 7 7 6 5 4 3 3 2 4 9
24 24 23 21 20 17 15 13 13 12 11 10 7 7 8 7 7 7 7 7 6 5 4 2 2 2 3 3 1 1 4 5 4 5 5 7 7 6 5 4 4 4 4 4 3 3 3 6 6 5 6 5 6 7 7 6 6 6 5 3 1 2
26 25 23 21 20 18 16 14 13 13 12 11 9 8 8 7 8 8 7 8 7 6 5 3 2 2 3 3 1 1 4 6 6 6 7 7 7 7 6 6 5 5 5 5 6 6 6 6 6 5 6 5 5 6 5 5 6 7 7 6 4 2
25 23 22 21 20 19 17 15 13 13 13 12 11 10 10 9 9 8 8 7 7 6 5 4 3 4 4 4 3 3 4 5 5 6 6 6 7 7 7 7 7 8 8 8 9 10 10 10 9 8 6 6 6 6 7 7 8 8 7 6 5 3
21 19 19 19 19 17 16 14 13 13 13 12 12 12 12 11 10 9 8 8 7 6 5 5 5 6 6 5 5 4 4 5 5 5 4 5 6 6 7 7 8 10 11 11 11 11 12 12 11 11 10 9 9 10 11 11 10 9 9 8 8 5
16 15 16 17 17 16 15 14 13 12 12 11 10 9 9 9 9 9 9 8 7 6 6 7 7 7 7 6 5 4 4 5 5 5 4 5 7 8 7 8 9 11 11 12 11 11 13 13 12 13 13 12 11 11 11 11 9 10 10 9 9 7
14 15 18 19 19 18 16 15 13 12 11 8 6 5 4 2 5 8 8 8 7 6 6 7 8 8 7 6 3 2 3 5 5 5 5 7 9 10 9 9 9 10 10 10 10 10 11 11 11 11 11 10 10 10 10 10 8 9 9 9 10 7
15 16 17 18 16 13 12 14 15 14 11 8 5 5 5 3 7 10 9 8 6 5 5 7 7 7 5 4 2 1 3 5 6 6 7 8 9 10 9 9 8 8 9 9 9 9 9 9 9 9 8 8 9 9 9 9 9 10 10 10 11 9
15 15 14 13 11 10 12 15 17 17 15 12 9 8 9 9 10 12 10 8 5 3 5 6 7 6 5 3 2 2 3 4 5 6 7 7 8 8 7 7 7 8 9 9 8 9 9 8 9 9 9 9 11 12 12 11 11 12 12 12 12 11
18 16 16 16 17 20 22 21 19 19 18 15 13 14 14 13 13 14 11 8 5 3 3 5 6 6 5 4 3 2 2 2 3 4 5 5 6 6 6 5 6 7 9 9 8 9 9 9 11 11 11 12 12 14 13 12 13 12 12 12 12 11

ECMWFFLT2_925_spd_030.txt.gz
Wind_Speed
19 19 20 21 19 19 21 20 19 18 18 18 16 16 17 17 17 16 16 16 14 13 12 11 11 11 11 11 11 11 11 10 9 9 9 8 9 9 8 7 7 7 7 6 7 8 9 9 8 6 4 6 10 9 6 5 5 5 5 6 6 3
17 17 17 18 17 17 19 18 17 17 17 17 17 16 17 16 16 15 15 14 12 11 10 10 10 10 10 10 11 12 11 10 9 9 9 9 8 8 7 6 6 6 6 6 7 6 6 8 8 7 5 6 9 8 6 7 5 5 5 6 5 3
15 15 14 13 14 16 16 14 14 16 15 16 16 15 16 16 15 14 13 12 11 10 9 9 10 10 10 11 11 11 11 10 9 8 8 8 8 8 8 7 6 6 6 5 5 4 5 6 7 8 7 7 8 8 8 7 6 5 4 6 5 3
13 13 12 10 10 13 13 9 10 13 14 15 15 13 13 13 14 13 12 11 10 10 9 9 10 12 11 10 10 10 10 9 9 8 8 8 8 8 7 7 7 7 5 3 2 3 4 5 5 6 7 6 7 8 9 7 6 5 4 6 4 2
11 11 10 8 7 10 11 7 8 10 12 13 11 10 10 10 11 12 11 9 9 9 9 9 10 11 10 9 9 9 9 9 9 9 8 7 7 7 7 7 7 6 4 3 3 2 3 4 5 5 6 5 6 8 8 7 6 5 5 6 3 3
10 9 8 9 9 9 9 8 7 8 11 13 11 11 10 8 8 9 10 9 9 9 8 8 9 9 8 8 9 9 9 9 9 9 8 7 6 7 7 7 7 6 5 4 4 4 4 4 5 5 5 5 6 8 7 6 6 5 5 6 3 4
9 9 10 10 10 9 9 8 6 8 11 12 12 12 10 6 6 7 9 10 9 10 8 6 8 8 7 7 7 7 7 8 8 8 8 7 7 7 7 7 7 6 6 5 5 5 5 5 5 5 5 6 6 7 6 6 5 5 5 6 4 4
8 12 14 12 14 12 11 10 9 9 9 10 10 9 7 5 6 7 8 8 9 10 8 6 7 7 7 7 6 5 5 6 7 7 8 7 7 8 7 7 7 7 6 6 5 5 5 5 6 6 6 6 7 7 6 5 5 5 5 6 4 4
8 10 11 12 14 13 11 10 8 7 5 5 5 4 5 6 7 7 7 8 10 10 9 8 7 6 6 5 5 6 6 6 6 6 7 7 7 7 7 7 7 8 7 7 6 6 5 5 6 6 6 6 7 6 6 6 6 5 5 6 5 3
9 10 9 10 12 10 10 8 6 5 3 3 1 1 6 8 5 6 7 9 8 8 9 7 6 5 4 4 5 6 7 7 6 6 7 7 7 7 6 7 7 7 8 8 7 6 6 6 6 6 6 6 7 6 6 6 6 5 5 6 5 4
10 10 10 10 10 8 8 8 7 5 6 5 2 4 9 6 3 5 7 6 5 5 6 5 4 4 4 5 5 7 8 8 8 8 8 7 7 6 6 6 6 7 8 8 7 7 6 6 7 7 7 7 6 6 6 6 5 5 5 5 5 5
9 10 9 10 10 8 7 7 6 6 7 5 4 7 11 5 4 7 6 5 5 5 4 5 6 5 5 6 6 8 9 9 9 9 8 7 6 6 6 6 6 6 7 8 8 7 6 5 6 6 6 6 6 6 5 5 5 5 5 5 5 6
9 10 9 9 10 8 7 7 5 6 6 5 6 10 9 5 7 9 6 5 5 5 7 9 9 6 5 6 7 8 7 8 8 8 7 7 7 7 8 7 6 7 7 8 8 7 6 5 5 5 5 4 4 4 4 4 4 5 5 5 5 5
10 9 9 8 9 8 8 7 5 6 4 4 7 10 7 6 9 8 5 5 3 5 10 10 9 7 6 6 7 7 7 8 7 7 7 8 7 7 8 7 7 7 7 8 7 8 7 6 5 5 4 4 4 3 3 4 4 5 5 4 5 4
11 11 10 9 9 9 9 8 6 5 5 6 8 9 6 7 9 7 5 5 5 6 10 10 10 10 7 7 8 7 7 7 7 6 6 6 7 7 7 6 6 5 6 7 7 7 6 6 6 5 4 3 3 3 3 4 4 5 5 5 5 5
12 12 11 9 9 9 9 9 7 6 7 8 8 7 5 5 6 5 4 4 4 5 6 6 6 8 7 7 8 7 6 6 6 5 3 4 5 6 5 5 4 4 5 6 7 7 6 6 6 5 5 3 3 2 3 3 4 4 4 5 5 4
12 13 11 9 8 8 8 8 7 8 8 7 6 5 4 3 2 2 3 2 2 3 3 3 3 4 5 5 6 5 5 4 4 4 3 3 4 5 4 4 3 3 5 4 5 7 6 6 7 6 5 4 3 3 2 3 3 3 3 3 1 0
12 12 11 10 9 8 8 7 7 7 7 6 5 5 4 3 1 1 1 2 2 3 3 3 3 4 4 4 3 3 3 3 3 3 3 3 2 2 3 4 3 3 5 4 4 6 6 7 7 7 6 5 4 3 3 3 2 2 1 1 2 1
12 11 11 10 10 10 9 8 7 7 6 5 4 3 3 3 2 2 2 2 3 3 3 3 4 4 4 4 3 2 2 2 2 2 3 3 1 1 0 3 4 4 4 4 4 5 6 7 7 6 6 5 4 4 3 3 2 2 2 3 2 0
12 12 12 12 12 11 10 9 8 7 6 5 4 4 3 3 3 3 3 3 4 4 4 3 3 4 4 4 3 2 2 2 2 1 2 3 1 1 2 4 5 5 5 6 5 5 6 6 6 6 6 5 5 4 4 4 3 3 4 3 1 1
14 14 14 14 13 12 10 9 8 8 6 6 6 6 5 4 4 4 4 4 4 5 5 4 3 3 3 3 2 2 2 1 1 1 1 2 2 1 2 3 4 5 6 6 6 6 6 7 7 6 6 5 4 3 3 4 3 2 3 2 1 1
16 16 15 14 13 12 10 9 8 8 7 7 6 6 6 6 5 5 5 5 5 5 6 5 4 4 3 3 3 2 2 1 0 1 1 1 2 2 2 3 4 5 5 5 5 6 7 7 7 6 5 5 5 4 3 3 3 3 2 2 2 1
16 17 15 13 12 12 11 9 9 9 8 7 7 7 8 8 7 7 6 5 6 6 6 6 6 5 5 4 3 3 2 1 1 1 1 2 2 3 3 4 5 5 4 5 5 6 7 6 6 6 5 4 4 4 4 4 4 4 3 2 2 2
16 16 15 13 12 12 11 10 10 10 9 9 9 9 10 9 8 8 7 6 5 6 6 6 6 6 6 6 5 3 3 2 2 1 1 1 2 3 4 4 6 6 5 6 5 5 6 6 5 5 4 3 3 4 4 5 5 5 4 3 3 3
16 16 15 14 14 14 14 13 12 12 11 10 10 9 9 9 8 8 7 6 5 5 5 4 5 5 6 6 5 4 3 2 2 1 1 1 2 3 4 4 6 7 7 6 5 5 5 6 6 5 3 1 2 3 2 5 7 5 4 4 4 4
15 15 15 16 16 15 15 15 15 14 12 11 10 8 8 9 8 7 6 6 5 5 4 4 5 5 5 5 4 3 2 2 2 1 1 1 2 2 4 4 4 6 7 6 7 7 6 6 6 5 4 1 0 1 1 4 5 2 4 6 6 5
14 15 16 17 17 16 16 16 15 13 12 11 10 9 9 8 8 7 7 6 6 6 5 5 5 5 5 5 4 4 3 3 3 2 2 2 2 2 2 3 3 4 5 5 6 7 6 5 6 6 5 4 3 2 2 2 3 2 4 6 6 6
14 15 16 18 17 16 16 15 13 12 11 10 10 11 10 9 8 8 8 8 7 7 6 5 5 5 5 4 4 5 5 5 5 4 4 3 3 3 2 2 3 3 4 4 5 5 5 5 5 4 5 6 5 3 3 3 4 7 4 5 6 7
15 14 16 18 18 16 15 14 13 12 11 11 11 12 11 10 9 9 9 8 8 7 7 6 5 5 4 4 4 5 6 6 6 5 5 5 5 5 4 3 2 2 3 3 3 3 3 4 4 4 5 5 4 4 5 5 7 10 5 5 5 6
15 14 15 17 17 15 14 14 12 12 13 12 12 11 11 10 9 10 10 9 8 8 7 6 5 5 5 5 5 6 6 6 6 6 5 5 5 5 4 4 3 3 3 3 3 2 3 4 3 3 4 5 5 6 6 5 5 6 3 5 5 6
11 12 16 17 16 15 15 14 12 13 14 14 13 12 12 11 10 10 10 9 9 8 7 8 7 6 5 6 6 6 6 6 6 5 5 5 4 4 4 4 4 4 4 4 3 3 3 3 3 3 3 3 5 5 5 5 5 5 4 5 5 6
7 3 9 14 17 16 14 13 12 13 14 15 14 14 13 13 12 11 10 9 9 9 8 8 9 8 6 6 6 6 6 6 5 5 5 5 5 5 5 5 5 5 5 5 5 4 4 5 4 4 4 3 3 3 2 2 4 5 5 5 6 6
6 3 6 9 14 16 14 13 13 13 14 15 14 14 14 14 13 11 11 10 10 10 9 9 9 9 7 6 6 6 6 6 6 6 6 6 7 7 6 6 6 6 6 6 5 5 5 6 6 5 5 4 3 3 3 2 2 3 4 6 6 6
12 16 14 11 12 14 13 13 13 12 13 14 13 13 13 13 13 11 10 11 10 11 10 10 10 9 8 6 6 7 7 7 7 7 8 8 8 8 7 7 7 7 7 7 7 7 7 7 7 5 5 4 5 5 5 4 3 3 4 5 6 6
19 22 19 17 17 16 14 13 12 11 12 12 12 12 12 12 12 11 11 11 10 11 11 11 10 9 8 7 8 9 9 9 9 8 9 9 8 8 7 7 8 8 8 8 8 8 7 7 6 6 5 5 5 6 5 5 4 3 3 3 5 6
17 19 19 20 20 18 15 14 13 12 12 12 12 12 12 12 12 12 11 11 11 12 12 12 11 10 9 8 9 10 10 10 10 9 9 9 8 7 7 8 8 8 8 7 7 7 7 7 6 6 6 6 6 7 7 6 5 5 4 3 4 5
16 18 19 20 19 17 16 15 14 13 12 11 11 12 13 14 14 13 11 11 12 12 12 13 12 10 9 9 10 10 11 11 11 10 9 8 8 7 7 8 8 7 7 7 7 7 7 7 7 7 7 7 7 8 7 7 7 7 6 5 4 4

ECMWFFLT2_925_spd_033.txt.gz
Wind_Speed
18 17 19 17 17 19 18 18 18 17 17 15 13 13 12 10 11 11 11 11 10 10 10 11 11 10 11 10 10 10 10 9 8 8 8 9 9 8 7 6 7 7 8 9 9 8 7 5 4 3 4 6 9 7 2 2 5 5 5 7 9 5
16 15 16 15 17 18 17 19 18 17 17 15 14 13 12 11 10 9 9 9 9 9 9 9 10 10 10 10 10 10 10 9 8 7 7 9 9 8 7 6 6 6 6 8 10 10 7 5 5 4 4 7 9 6 3 4 4 5 7 8 8 5
14 12 16 17 18 18 17 20 20 19 17 15 15 13 13 12 10 10 9 7 7 8 8 7 7 8 8 9 9 10 9 9 7 7 7 8 9 9 8 7 6 6 7 7 9 10 8 7 6 5 5 7 8 6 5 5 4 5 7 7 6 3
15 13 16 20 20 18 18 19 19 20 18 16 16 13 13 12 11 10 9 8 6 5 5 6 7 7 8 7 7 8 8 8 8 7 7 8 10 9 8 8 7 7 7 7 8 8 9 9 8 7 7 7 8 7 6 6 5 6 8 8 5 2
17 17 17 21 20 18 18 19 20 19 17 17 15 14 12 11 11 10 9 10 9 7 8 10 11 11 11 8 6 6 7 7 8 9 9 9 10 9 9 9 8 8 7 7 7 7 7 8 8 8 8 8 8 8 8 7 6 6 9 7 4 3
21 23 22 22 21 19 18 19 18 16 17 18 15 14 13 10 10 11 12 12 12 12 12 12 12 12 11 10 8 7 7 9 9 10 9 9 10 10 10 11 11 10 9 6 6 6 6 7 8 8 9 8 8 10 9 8 6 7 9 7 4 6
23 25 23 21 20 18 17 15 14 15 18 18 14 14 13 8 8 12 13 11 10 10 10 10 10 10 9 9 9 8 10 12 12 11 10 9 10 11 10 11 11 10 8 6 6 7 7 7 7 8 9 9 9 9 9 8 7 8 9 7 6 7
21 21 19 19 18 16 15 15 15 17 18 18 17 16 14 11 10 11 9 6 7 7 7 7 6 7 8 6 7 9 11 13 12 12 10 8 9 9 9 9 9 8 7 7 7 6 7 7 7 7 8 8 8 9 8 8 7 8 10 8 7 7
18 18 18 19 17 17 16 15 16 16 17 18 18 17 16 16 12 10 9 6 6 6 6 5 4 5 6 4 5 9 9 11 11 10 7 6 6 5 7 8 6 7 7 6 7 6 7 8 7 7 8 9 9 9 9 8 8 8 10 11 8 7
14 16 17 17 16 17 16 15 16 15 16 16 15 17 17 16 13 9 9 7 7 7 6 4 3 3 4 4 6 7 7 9 7 5 5 5 6 7 5 7 7 6 7 6 7 6 6 7 8 8 8 9 9 9 9 8 8 8 10 12 10 8
13 14 14 15 15 15 15 14 14 12 12 11 11 13 12 11 10 7 6 7 8 8 6 3 3 3 3 3 4 4 6 9 7 5 5 5 6 7 5 7 11 7 6 6 6 6 7 8 9 9 8 9 9 8 9 8 8 7 9 13 12 10
14 13 12 14 14 14 15 13 13 10 8 9 9 10 9 7 6 5 5 6 8 7 5 5 5 5 3 3 5 5 6 9 8 7 7 5 5 5 4 5 10 12 6 4 5 5 6 8 9 9 9 10 8 8 8 7 7 7 9 13 13 12
14 14 13 12 12 13 14 13 12 10 8 9 9 9 8 7 6 6 6 7 8 6 4 5 6 5 4 3 5 6 7 7 6 6 6 5 4 3 3 4 7 10 7 3 5 6 6 7 8 8 8 9 8 7 7 6 6 6 8 11 12 13
14 14 14 12 11 11 12 12 12 10 10 9 8 8 7 7 7 7 7 8 8 6 6 6 6 6 5 5 6 7 6 5 4 5 5 4 2 1 3 3 5 7 7 7 6 6 6 6 7 7 7 7 8 6 6 6 6 5 8 13 13 13
15 14 13 11 10 10 11 11 11 10 9 8 7 7 7 7 8 8 8 8 7 7 8 8 8 8 7 8 8 7 6 4 4 4 3 3 3 3 4 4 5 8 8 9 9 7 5 6 6 7 7 5 6 6 4 6 5 6 10 14 12 11
16 14 12 11 10 10 10 10 9 9 9 7 6 6 7 7 7 8 8 8 7 7 7 7 8 8 8 8 8 7 6 5 3 3 3 3 5 6 5 5 6 8 8 9 8 6 4 4 5 4 6 3 4 5 3 5 6 6 8 10 11 10
16 14 12 10 9 9 9 10 9 8 8 7 6 6 6 6 6 6 6 7 6 6 6 6 6 7 8 8 8 8 6 6 4 4 4 4 4 5 6 5 4 6 6 7 8 4 3 3 3 3 4 2 3 3 2 6 7 4 5 7 9 10
15 14 12 10 9 9 8 9 9 8 8 7 6 5 5 5 5 5 5 6 6 6 6 5 6 6 6 7 7 7 8 8 6 6 5 4 3 5 6 4 4 5 5 5 6 5 4 5 3 3 4 2 2 3 2 4 5 3 4 5 7 8
15 13 12 11 10 9 9 9 9 9 9 8 6 5 4 4 4 4 5 5 6 6 6 5 5 5 6 6 5 7 9 10 8 7 6 5 5 5 6 6 6 6 6 6 6 6 7 7 5 4 3 3 2 3 3 2 2 3 5 5 6 6
16 14 12 12 11 11 11 10 10 10 9 7 6 5 4 3 3 3 4 5 5 5 6 7 6 6 5 5 5 6 7 8 8 9 8 7 6 5 6 6 6 6 8 8 6 7 9 8 7 4 2 4 3 3 4 3 3 3 4 4 4 5
16 15 14 14 13 12 12 11 11 10 9 8 6 6 5 4 3 3 3 4 4 5 6 7 6 6 5 4 5 7 6 6 7 8 8 7 7 6 6 6 5 6 8 7 6 10 11 7 6 5 3 3 3 2 3 3 3 2 2 2 2 3
15 15 14 14 13 13 12 12 11 10 10 9 8 7 6 5 4 4 4 3 4 4 5 5 6 6 6 4 5 7 7 7 6 6 7 7 7 7 6 6 6 6 7 7 8 10 9 5 4 5 3 2 2 2 2 2 3 3 2 1 1 1
15 15 14 14 14 13 12 12 11 10 10 10 9 7 7 7 6 5 4 4 3 4 4 4 4 5 6 6 6 7 7 7 7 7 7 8 8 8 7 8 9 8 6 6 8 9 7 4 3 4 4 2 2 2 1 2 4 5 3 1 1 1
16 17 17 15 13 13 11 10 10 10 10 10 10 9 9 8 7 6 5 4 4 4 3 3 3 3 5 6 6 6 6 6 6 6 6 7 7 7 8 10 11 9 7 8 9 9 7 5 4 2 3 1 3 3 1 2 4 5 3 2 2 2
18 19 18 14 12 14 12 11 12 11 11 11 11 10 10 9 8 7 6 5 5 4 3 3 3 3 4 5 5 5 5 5 5 5 5 6 6 7 9 11 11 10 9 10 10 7 5 5 4 2 3 1 2 2 1 4 5 3 2 4 3 1
18 19 17 13 11 14 13 12 13 12 12 12 11 10 10 9 8 7 7 6 5 4 4 4 3 4 4 4 4 3 3 3 4 4 4 5 5 7 9 10 11 11 11 9 7 6 5 5 3 3 2 3 4 3 4 6 4 2 3 4 3 3
17 17 17 13 12 14 13 13 13 12 12 12 11 11 10 9 8 7 7 7 6 5 5 4 4 4 4 3 3 3 3 2 3 4 4 4 5 6 6 7 7 8 8 7 5 4 4 3 4 4 4 4 5 7 8 6 3 4 3 1 3 6
16 16 16 14 14 15 14 14 13 12 12 11 12 12 11 9 8 8 8 7 7 6 5 5 4 3 3 3 3 2 3 3 3 4 4 4 4 5 4 4 4 4 5 5 5 4 4 4 4 5 6 5 4 8 8 5 4 6 4 3 4 6
14 13 14 15 16 16 15 14 13 12 12 12 13 12 11 10 9 9 8 7 7 7 6 5 4 3 3 3 3 2 3 4 4 4 5 5 5 6 5 5 3 2 3 2 2 2 4 3 0 0 5 5 5 8 8 6 6 6 3 4 5 5
13 14 17 14 12 13 14 13 11 11 12 13 13 12 11 10 9 9 8 7 7 6 6 5 5 4 3 3 3 3 3 4 5 5 5 5 5 6 6 6 5 4 4 3 3 2 1 4 4 1 2 4 4 4 6 5 5 6 2 2 3 6
19 20 21 17 13 11 11 11 10 11 13 13 12 11 11 10 9 9 8 7 6 6 6 6 6 5 4 4 4 4 3 4 5 5 5 5 5 6 6 6 6 5 5 4 4 4 4 5 5 2 3 4 3 3 4 3 2 5 4 2 3 6
22 23 21 21 20 14 11 11 10 11 12 12 12 11 11 10 10 9 8 7 6 6 5 6 6 5 5 5 4 4 3 3 4 5 5 5 5 6 6 7 7 6 6 6 5 5 5 5 5 5 5 5 5 5 5 5 2 5 7 4 4 6
24 24 23 22 21 16 12 11 12 12 12 12 11 11 10 10 9 8 7 7 6 6 6 6 6 5 5 5 4 4 3 3 5 5 6 6 6 6 7 7 8 7 8 8 7 7 8 7 6 7 6 6 6 5 6 6 4 6 7 6 5 6
23 24 23 23 20 16 14 13 12 12 12 12 11 11 10 9 8 7 6 7 6 5 6 5 6 6 5 5 5 5 4 5 6 7 7 8 7 7 7 8 9 9 9 9 9 9 9 9 8 8 7 7 7 6 6 6 5 7 8 7 6 6
19 22 22 20 18 14 13 14 14 12 12 12 11 10 10 9 8 7 6 6 5 5 6 6 6 6 6 6 6 6 6 6 7 8 8 8 8 8 8 9 10 10 10 9 10 10 10 10 9 9 8 7 8 8 7 6 6 6 7 7 6 5
14 19 18 16 16 14 13 14 14 13 12 11 10 10 9 9 8 7 6 6 5 6 7 7 7 6 7 7 8 8 7 7 8 8 8 8 8 8 8 9 10 10 10 9 10 9 9 10 10 9 9 8 8 9 9 8 8 8 8 7 6 5
11 13 14 14 14 13 11 12 13 13 12 11 10 9 9 9 9 8 7 6 6 7 8 8 8 7 7 7 8 8 8 8 8 8 8 8 8 9 9 9 9 10 9 9 10 10 9 9 9 9 9 9 10 10 10 10 10 10 8 7 7 4

ECMWFFLT2_925_spd_036.txt.gz
Wind_Speed
20 22 25 25 25 24 22 21 18 16 16 15 15 14 12 11 11 11 11 12 12 11 11 10 8 7 6 5 5 4 3 2 0 1 1 1 2 2 1 2 2 3 5 6 7 7 6 5 4 4 8 11 9 6 7 6 7 10 10 9 7 8
19 21 25 26 25 24 22 22 20 17 16 15 15 15 14 14 13 13 13 13 13 12 11 10 9 9 8 6 5 6 4 3 1 1 1 0 1 1 1 1 1 1 3 6 7 7 6 6 6 5 7 11 9 5 6 6 7 8 9 9 8 9
23 24 25 26 24 23 23 22 21 19 19 17 17 17 17 16 15 15 14 13 12 11 11 10 10 8 7 7 6 6 5 3 2 1 1 0 1 1 1 2 2 0 2 4 8 9 7 5 6 7 7 10 8 4 4 6 8 8 7 7 8 9
26 27 25 25 25 24 23 22 22 21 21 20 19 18 17 17 16 15 14 13 12 11 12 10 10 9 9 8 6 6 5 4 3 2 1 1 2 3 4 3 2 1 1 4 6 8 8 8 6 6 8 10 8 4 4 6 10 11 9 7 9 8
26 27 25 27 27 26 25 23 23 22 22 22 19 19 18 18 17 17 15 14 13 13 12 10 10 10 10 8 6 6 6 4 4 3 2 1 1 3 5 5 4 3 3 3 7 8 10 11 8 5 7 9 7 7 8 7 10 13 11 9 8 7
27 27 27 28 28 26 24 24 23 22 23 21 19 20 20 19 19 18 16 14 14 12 11 10 9 9 9 9 8 8 7 6 6 6 5 3 3 2 4 6 7 7 9 10 12 12 10 10 9 8 8 9 9 10 10 8 9 12 10 8 8 7
27 28 28 26 24 23 22 23 23 23 22 21 20 21 19 19 19 17 15 13 12 11 10 9 9 8 9 9 9 10 10 9 9 8 7 5 5 3 3 6 8 10 10 11 13 10 8 8 7 8 10 10 10 11 11 10 11 12 10 9 9 8
27 27 26 22 20 20 20 21 23 23 21 20 20 18 17 17 16 14 13 13 11 10 10 9 9 9 10 11 10 11 12 10 9 7 6 6 4 2 2 6 10 11 9 9 12 10 8 8 8 7 9 10 11 11 10 12 13 12 11 10 11 10
27 26 24 21 20 21 20 20 21 21 20 19 17 15 15 14 12 12 12 10 10 10 11 11 10 8 8 10 10 11 11 10 8 4 3 4 4 2 3 7 11 10 8 9 8 7 10 9 9 8 7 8 10 10 9 14 15 13 10 10 11 11
25 26 24 21 20 21 19 19 19 19 19 18 16 15 14 12 10 11 11 10 10 10 11 10 9 7 7 7 7 7 7 6 4 2 3 3 3 4 5 6 10 8 7 8 6 4 8 10 9 8 7 7 9 7 11 18 16 14 12 9 9 11
22 24 22 20 20 20 18 18 17 18 18 16 15 14 13 11 10 11 12 11 10 11 11 10 8 8 7 5 4 5 5 3 4 4 4 4 4 5 5 6 8 7 5 5 6 4 5 11 9 8 8 7 9 6 13 16 12 13 13 9 10 11
21 22 21 20 20 19 18 17 15 16 16 14 14 13 11 11 10 11 13 13 12 12 14 13 12 10 9 7 6 5 4 4 5 6 5 5 7 6 5 5 6 5 4 4 6 4 4 10 8 6 9 8 8 6 15 12 12 15 14 12 12 11
22 22 21 21 20 19 19 17 15 15 14 13 13 11 11 11 9 9 11 14 13 14 14 13 12 11 10 9 6 5 6 5 5 7 7 7 8 7 6 5 4 4 4 4 5 5 4 6 7 6 6 8 7 11 19 13 12 16 14 14 14 11
23 23 21 21 20 18 17 16 15 14 13 12 12 11 11 11 10 9 9 11 11 12 12 11 10 11 9 7 6 6 7 7 5 5 7 7 8 7 6 5 5 5 5 4 4 5 4 4 5 7 6 2 4 12 15 10 12 15 14 14 15 13
23 22 20 19 18 16 16 15 14 13 13 12 11 11 10 10 10 9 9 8 8 10 11 10 10 10 9 7 7 7 8 7 6 5 6 7 8 7 6 5 5 4 4 4 3 3 4 4 4 3 5 7 10 14 14 13 15 16 15 14 15 15
22 21 19 18 16 16 15 14 12 12 12 11 10 11 10 9 8 9 9 8 9 10 10 10 9 9 8 8 8 9 8 8 7 6 6 6 7 6 5 5 4 2 3 4 2 2 2 2 2 5 6 6 12 13 16 16 15 16 16 13 13 14
20 19 18 17 15 15 15 13 12 11 11 10 9 9 8 8 7 8 8 8 10 11 10 10 9 9 10 10 11 9 8 8 7 5 6 7 8 7 4 3 3 2 2 2 0 0 1 2 3 7 9 9 11 9 12 14 13 14 14 12 11 12
18 18 17 16 16 15 14 13 11 10 10 8 7 7 7 6 6 6 6 7 9 10 10 9 9 9 10 12 11 9 9 9 7 6 7 7 7 7 5 4 3 2 2 3 2 2 1 3 7 8 9 11 9 5 9 11 11 10 10 11 11 10
18 17 15 15 16 15 13 12 10 10 9 8 7 7 6 6 6 5 6 6 8 9 9 9 9 8 9 11 10 8 10 9 8 7 6 6 6 7 6 5 4 4 3 3 2 2 2 4 8 7 7 9 6 3 6 8 9 8 9 10 12 11
17 16 16 15 14 13 13 12 10 9 8 8 7 6 5 6 6 5 5 6 7 8 8 9 8 7 7 10 9 10 10 9 8 9 7 7 6 7 7 6 5 5 4 3 2 1 2 4 5 6 7 7 4 2 3 6 6 7 9 10 11 10
17 16 16 15 13 13 12 11 11 10 8 8 8 7 6 6 6 7 7 5 6 7 8 9 9 8 7 8 9 10 10 9 8 9 9 8 6 6 7 5 4 6 6 5 4 2 3 6 5 5 6 5 4 4 4 5 4 5 9 10 10 8
18 16 16 13 12 12 11 11 10 9 8 8 7 7 7 7 7 8 7 6 6 7 7 8 9 8 7 7 8 9 9 9 8 9 9 8 7 6 6 5 4 5 6 7 5 4 4 5 5 6 4 2 3 4 3 4 5 6 9 12 12 9
20 17 16 13 11 10 10 9 8 7 8 9 8 8 9 8 8 8 8 7 7 7 7 8 8 8 8 8 9 10 10 10 8 8 8 8 8 6 5 5 5 5 5 7 6 4 4 4 6 8 4 1 2 3 2 3 5 7 9 12 13 11
19 17 16 13 12 11 10 8 8 7 9 11 11 10 10 8 8 8 8 8 8 7 7 8 8 8 9 9 10 10 11 11 9 8 9 8 8 8 7 7 8 7 7 7 6 5 4 4 6 8 3 2 3 2 1 2 4 7 9 11 14 14
18 17 16 14 14 15 12 9 9 8 9 12 11 9 9 8 7 7 8 8 8 7 7 8 7 8 10 9 8 8 8 9 9 9 9 9 8 9 9 9 9 8 8 7 6 5 3 3 4 6 5 2 3 0 1 4 5 5 8 10 12 13
19 19 17 16 16 17 14 10 7 7 8 9 8 7 8 8 7 7 8 8 7 7 7 7 7 9 10 8 7 7 6 6 6 6 7 7 8 8 8 8 8 8 7 6 6 6 4 4 4 4 6 4 1 2 4 7 4 2 7 9 11 12
21 21 19 18 16 18 16 9 6 6 7 7 7 8 8 7 7 8 9 8 7 7 7 7 7 8 8 7 7 7 5 6 6 5 4 4 5 5 6 5 6 7 6 5 5 6 5 4 4 4 6 5 1 4 8 7 3 3 4 7 11 13
22 21 20 18 16 17 15 10 7 6 6 7 8 9 8 7 7 8 8 7 7 7 7 7 7 6 7 7 7 7 5 5 6 6 5 3 2 3 5 5 4 5 6 5 5 6 6 5 6 7 7 5 3 5 7 6 6 7 5 4 7 9
21 20 20 18 16 15 14 12 8 6 7 7 9 9 7 6 8 8 7 7 7 8 7 7 6 6 7 7 7 7 6 5 4 6 6 4 4 5 5 5 5 5 6 6 6 7 7 9 10 10 9 8 5 6 5 6 7 8 8 6 4 4
20 19 18 17 17 16 15 14 9 7 7 10 10 8 7 7 8 7 7 6 7 7 6 6 6 5 6 7 7 8 7 6 6 6 7 7 6 7 6 7 6 5 6 6 6 7 8 9 10 11 11 9 8 8 5 5 6 7 8 6 4 6
19 18 17 16 17 16 17 16 11 8 9 12 10 9 9 8 7 7 6 6 6 6 6 7 6 5 6 7 6 7 7 7 8 7 7 7 6 7 8 8 8 8 7 7 8 9 9 11 11 12 12 9 9 9 6 6 6 7 6 5 5 6
19 19 18 17 17 16 17 16 11 9 11 12 10 10 10 9 8 7 7 6 6 6 7 7 7 6 7 7 6 6 7 7 8 8 7 6 7 8 8 8 9 10 9 9 10 10 11 12 12 13 14 11 10 10 8 8 11 10 7 10 12 7
24 22 20 18 17 16 16 14 10 12 14 13 11 10 10 9 9 8 7 7 7 7 8 8 8 7 7 7 6 6 8 8 8 8 7 7 8 8 8 9 10 11 11 11 12 13 14 13 12 13 13 13 12 12 10 10 13 13 10 14 15 10
29 28 25 22 19 17 15 12 11 15 16 14 12 10 10 9 9 8 7 7 7 7 8 8 9 8 7 7 6 7 10 10 8 8 8 8 8 9 10 11 11 12 13 13 14 15 14 13 12 12 12 13 13 12 12 12 14 16 14 15 14 9
34 33 30 26 23 19 15 12 13 15 15 14 13 11 10 9 8 7 7 6 6 7 9 9 9 9 8 8 8 9 10 11 10 10 9 8 9 10 13 12 12 13 13 13 13 14 14 13 12 12 12 13 12 11 12 12 11 14 16 14 11 12
32 33 31 30 28 22 16 15 16 16 15 14 14 12 11 9 8 7 6 5 5 7 10 10 10 9 9 10 11 11 12 12 11 11 10 10 10 11 13 12 12 12 13 13 13 13 14 14 13 13 13 13 12 12 12 11 11 10 11 10 9 11
27 28 28 30 29 24 21 20 19 18 16 15 15 13 12 11 9 8 7 5 6 9 11 11 11 11 10 11 12 12 13 12 11 11 11 11 11 11 12 12 11 12 13 14 14 14 14 14 13 12 13 13 12 13 13 12 13 13 13 11 9 8